Weather History for Jackson, KY

Change the Weather History Date:

Tuesday, February 5, 2013

  Actual Average Record
Temperature  
Mean Temperature 47 °F 37 °F  
Max Temperature 54 °F 45 °F 71 °F (2008)
Min Temperature 40 °F 28 °F -5 °F (1996)
Degree Days  
Heating Degree Days 18 28  
Month to date heating degree days 173 144  
Since 1 July heating degree days 2629 2710  
Cooling Degree Days 0 0  
Month to date cooling degree days 0 0  
Year to date cooling degree days 0 0  
Moisture  
Dew Point 32 °F    
Average Humidity 62    
Maximum Humidity 73    
Minimum Humidity 50    
Precipitation  
Precipitation T in 0.13 in 1.66 in (2010)
Month to date precipitation 0.28 0.67  
Year to date precipitation 6.01 4.28  
Snow  
Snow 0.00 in 0.30 in - ()
Month to date snowfall 3.7 1.5  
Since 1 July snowfall 7.7 14.1  
Snow Depth 0.00 in    
Sea Level Pressure  
Sea Level Pressure 29.91 in    
Wind  
Wind Speed 5 mph (WSW)    
Max Wind Speed 15 mph    
Max Gust Speed 23 mph    
Visibility 10 miles    
Events Rain    
T = Trace of Precipitation, MM = Missing Value Source: NWS Daily Summary

Daily Weather History Graph

Daily Weather History Graph

Search for Another Location

Airport:

Trip Planner

Search our weather history database for the weather conditions in past years. The results will help you decide how hot, cold, wet, or windy it might be!

Date:

Astronomy

Feb. 05, 2013 Rise Set
Actual Time 7:33 AM EST 6:01 PM EST
Civil Twilight 7:05 AM EST 6:29 PM EST
Nautical Twilight 6:34 AM EST 7:00 PM EST
Astronomical Twilight 6:04 AM EST 7:31 PM EST
Moon 3:11 AM EST (2/5) 1:20 PM EST (2/5)
Length of Visible Light 11h 23m
Length of Day
10h 28m
Waning Crescent, 27% of the Moon is Illuminated
Feb 5
Waning Crescent
Feb 10
New
Feb 17
First Quarter
Feb 25
Full
Mar 4
Last Quarter

Hourly Weather History & Observations

Time (EST) Temp. Windchill Dew Point Humidity Pressure Visibility Wind Dir Wind Speed Gust Speed Precip Events Conditions
12:53 AM 41.0 °F 39.0 °F 26.1 °F 55% 29.90 in 10.0 mi Variable 3.5 mph - N/A   Overcast
1:53 AM 41.0 °F - 28.0 °F 60% 29.89 in 10.0 mi Calm Calm - N/A   Overcast
2:32 AM 41.0 °F 39.0 °F 28.4 °F 61% 29.88 in 10.0 mi Variable 3.5 mph - N/A   Overcast
2:53 AM 39.9 °F 36.7 °F 28.0 °F 63% 29.90 in 10.0 mi SW 4.6 mph - 0.00 in   Overcast
3:53 AM 41.0 °F 37.1 °F 33.1 °F 73% 29.88 in 10.0 mi Variable 5.8 mph - N/A   Overcast
4:53 AM 41.0 °F 39.0 °F 32.0 °F 70% 29.88 in 10.0 mi SW 3.5 mph - N/A   Overcast
5:53 AM 41.0 °F 37.1 °F 33.1 °F 73% 29.88 in 10.0 mi WSW 5.8 mph - N/A   Overcast
6:53 AM 41.0 °F - 33.1 °F 73% 29.89 in 10.0 mi Calm Calm - N/A   Overcast
7:53 AM 41.0 °F 39.0 °F 33.1 °F 73% 29.90 in 10.0 mi SW 3.5 mph - N/A   Overcast
8:53 AM 42.1 °F 37.1 °F 32.0 °F 67% 29.92 in 10.0 mi WSW 8.1 mph - N/A   Overcast
9:53 AM 42.1 °F 38.4 °F 33.1 °F 70% 29.94 in 10.0 mi Variable 5.8 mph - 0.00 in Rain Light Rain
10:53 AM 44.6 °F 40.7 °F 35.6 °F 71% 29.93 in 10.0 mi Variable 6.9 mph - N/A   Overcast
11:53 AM 46.0 °F 43.1 °F 36.0 °F 68% 29.94 in 10.0 mi Variable 5.8 mph 20.7 mph N/A   Overcast
12:12 PM 46.4 °F 42.4 °F 35.6 °F 66% 29.93 in 10.0 mi WSW 8.1 mph - N/A   Mostly Cloudy
12:53 PM 50.0 °F - 36.0 °F 59% 29.92 in 10.0 mi SW 9.2 mph 18.4 mph N/A   Mostly Cloudy
1:53 PM 48.9 °F - 35.1 °F 59% 29.91 in 10.0 mi Variable 5.8 mph - N/A   Mostly Cloudy
2:53 PM 51.1 °F - 35.1 °F 54% 29.90 in 10.0 mi WSW 8.1 mph - N/A   Mostly Cloudy
3:53 PM 51.1 °F - 33.1 °F 50% 29.89 in 10.0 mi Variable 3.5 mph - N/A   Clear
4:53 PM 50.0 °F - 32.0 °F 50% 29.89 in 10.0 mi Variable 3.5 mph - N/A   Mostly Cloudy
5:53 PM 46.9 °F - 30.9 °F 54% 29.89 in 10.0 mi Calm Calm - N/A   Partly Cloudy
6:53 PM 46.9 °F - 32.0 °F 56% 29.90 in 10.0 mi Variable 3.5 mph - N/A   Overcast
7:53 PM 46.9 °F - 32.0 °F 56% 29.91 in 10.0 mi Variable 5.8 mph - N/A   Overcast
8:53 PM 46.9 °F - 32.0 °F 56% 29.93 in 10.0 mi Variable 4.6 mph - N/A   Overcast
9:53 PM 46.9 °F - 33.1 °F 59% 29.96 in 10.0 mi Variable 5.8 mph - N/A   Overcast
10:53 PM 46.0 °F 41.9 °F 30.9 °F 56% 29.98 in 10.0 mi West 8.1 mph 19.6 mph N/A   Scattered Clouds
11:53 PM 44.1 °F 38.6 °F 30.9 °F 60% 30.00 in 10.0 mi WNW 10.4 mph - N/A   Clear